Regional Weather Roundup
Issued by NWS

Home | Current Version | Previous Version | Graphics & Text | Print | Product List | Glossary On
Versions: 1 2 3 4 5 6 7 8 9 10 11 12 13 14 15 16 17 18 19 20 21 22 23 24 25 26 27 28 29 30 31 32 33 34 35 36 37 38 39 40 41 42 43 44 45 46 47 48 49 50
000
ASUS45 KABQ 280301
RWRNM
NEW MEXICO REGIONAL WEATHER ROUNDUP
NATIONAL WEATHER SERVICE ALBUQUERQUE NM
900 PM MDT TUE SEP 27 2016

NOTE: "FAIR" MEANS FEW OR NO CLOUDS BELOW 12,000 FEET AGL WITH NO
       SIGNIFICANT WEATHER OR OBSTRUCTIONS TO VISION.

      THIS PRODUCT IS RELEASED AS TWO VERSIONS.  ONE VERSION NEAR
      THE TOP OF THE HOUR CONTAINING PRELIMINARY DATA FROM ALBUQUERQUE
      AND OTHER STATIONS.  A FINAL VERSION WITH ADDITIONAL DATA IS
      ISSUED ABOUT 10 MINUTES AFTER THE HOUR.

NMZ501-503-504-510>518-280400-
NORTHWEST PLATEAU/NORTHCENTRAL MOUNTAINS

CITY           SKY/WX    TMP DP  RH WIND       PRES   REMARKS
FARMINGTON     FAIR      68  34  28 N3        30.18R
LOS ALAMOS     FAIR      61  22  22 W6        30.31S
SANTA FE       FAIR      62  32  32 E6        30.25R
TAOS           FAIR      55  25  30 NE5       30.31R

$$
NMZ402-403-502-505>509-280400-
WESTCENTRAL MOUNTAINS/SOUTHWEST MOUNTAINS

CITY           SKY/WX    TMP DP  RH WIND       PRES   REMARKS
GALLUP         FAIR      49  45  86 CALM      30.25R
SILVER CITY    FAIR      59  47  65 SE3       30.23R

$$
NMZ407-409-411-412-280400-
SOUTHERN DESERTS

CITY           SKY/WX    TMP DP  RH WIND       PRES   REMARKS
DEMING         FAIR      65  50  58 SW5       30.18R
LAS CRUCES     FAIR      65  55  70 CALM      30.18R
HOLLOMAN AFB   MOCLDY    68  52  56 E7        30.13R
ALAMOGORDO     FAIR      64  48  55 E8        30.16R
T OR C         FAIR      67  50  54 W5        30.18R

$$
NMZ519>523-280400-
CENTRAL VALLEYS/CENTRAL HIGHLANDS

CITY           SKY/WX    TMP DP  RH WIND       PRES   REMARKS
ALBUQUERQUE    FAIR      65  38  36 SE8       30.20R
DOUBLE EAGLE   CLEAR     57  37  47 SW8       30.24R
CLINES CORNERS FAIR      57  38  48 SW6       30.31R
BELEN          FAIR      67  41  38 S9        30.19S
SOCORRO        FAIR      65  43  44 CALM      30.18R

$$
NMZ524>526-539-540-280400-
SOUTHCENTRAL MOUNTAINS

CITY           SKY/WX    TMP DP  RH WIND       PRES   REMARKS
RUIDOSO        FAIR      55  32  41 CALM      30.34R

$$
NMZ527>531-280400-
NORTHEAST HIGHLANDS/NORTHEAST PLAINS

CITY           SKY/WX    TMP DP  RH WIND       PRES   REMARKS
LAS VEGAS      FAIR      52  26  36 S12       30.30R
RATON          FAIR      53  33  46 CALM      30.24R
CLAYTON        FAIR      63  38  39 W9        30.17R

$$
NMZ532>537-280400-
EASTCENTRAL PLAINS

CITY           SKY/WX    TMP DP  RH WIND       PRES   REMARKS
TUCUMCARI      FAIR      60  35  39 S7        30.12R
CANNON AFB     NOT AVBL
CLOVIS AIRPORT FAIR      57  45  62 SW7       30.17R

$$
NMZ028-029-538-280400-
SOUTHEAST PLAINS

CITY           SKY/WX    TMP DP  RH WIND       PRES   REMARKS
ROSWELL        FAIR      57  44  62 SW7       30.15R
ARTESIA        FAIR      61  50  67 SW10      30.16R
CARLSBAD       FAIR      59  54  83 S8        30.14R
HOBBS          FAIR      57  48  72 S6        30.17S


$$




USA.gov is the U.S. government's official web portal to all federal, state and local government web resources and services.